Flag for U.S.A. Weather past 2 weeks in San Bernardino, California, U.S.A.

Now
57 °F

Mostly cloudy.


Feels Like: 56 °F
Forecast: 48 / 55 °F
Wind: 7 mph from West

Location: Riverside Municipal Airport

Current Time: Feb 27, 2015 at 11:31:58 PM

Latest Report: Feb 27, 2015 at 10:53 PM


Visibility: 10 mi

Pressure: 29.74 "Hg

Humidity: 74%

Dew point: 49 °F

Location of San BernardinoLocation

Historic Weather in San Bernardino — Graph

°F

San Bernardino temperature yesterday

Maximum temperature yesterday: 71 °F (at 1:53 PM)
Minimum temperature yesterday: 45 °F (at 5:53 AM)
Average temperature yesterday: 57 °F

Past Weeks' High & Low Weather Summary

 TemperatureHumidityPressure
High86 °F (Feb 13, 1:53 PM)97% (Feb 18, 6:53 AM)30.20 "Hg (Feb 18, 6:53 AM)
Low41 °F (Feb 24, 5:53 AM)8% (Feb 13, 12:53 PM)29.72 "Hg (Feb 27, 5:53 PM)
Average60 °F59%29.98 "Hg
* Reported Feb 12 9:53 PM — Feb 27 9:53 PM, San Bernardino, Weather by CustomWeather, © 2015

Note: Actual official high and low records may vary slightly from our data, if they occured in-between our weather recording intervals... More about our weather records

Advertising

San Bernardino weather history for previous 24 hours

 ConditionsComfort  
Time TempWeatherWind HumidityBarometerVisibility
9:53 PM
Fri, Feb 27
58 °FMostly cloudy.9 mph75%29.74 "Hg10 mi
8:53 PM58 °FOvercast.7 mph78%29.73 "Hg10 mi
7:53 PM58 °FMostly cloudy.9 mph78%29.72 "Hg10 mi
6:53 PM59 °FOvercast.3 mph69%29.72 "Hg10 mi
5:53 PM60 °FMostly cloudy.6 mph69%29.72 "Hg10 mi
4:53 PM61 °FMostly cloudy.6 mph67%29.72 "Hg10 mi
3:53 PM62 °FMostly cloudy.7 mph62%29.73 "Hg10 mi
2:53 PM62 °FMore clouds than sun.3 mph58%29.74 "Hg10 mi
1:53 PM61 °FMostly cloudy.6 mph60%29.75 "Hg10 mi
12:53 PM62 °FOvercast.7 mph56%29.77 "Hg10 mi
11:53 AM61 °FOvercast.No wind56%29.79 "Hg10 mi
11:00 AM62 °FPartly sunny.6 mph54%29.86 "Hg10 mi
9:53 AM60 °FScattered clouds.7 mph60%29.83 "Hg10 mi
8:53 AM57 °FPassing clouds.5 mph69%29.83 "Hg10 mi
7:53 AM52 °FPartly sunny.No wind80%29.83 "Hg10 mi
6:53 AM49 °FBroken clouds.5 mph86%29.82 "Hg10 mi
5:53 AM50 °FOvercast.5 mph83%29.81 "Hg10 mi
4:53 AM49 °FOvercast.No wind86%29.80 "Hg10 mi
3:53 AM49 °FPassing clouds.No wind84%29.79 "Hg10 mi
2:53 AM50 °FClear.3 mph80%29.80 "Hg10 mi
1:53 AM50 °FClear.No wind83%29.78 "Hg10 mi
12:53 AM52 °FClear.No wind80%29.80 "Hg10 mi
11:53 PM
Thu, Feb 26
54 °FClear.No wind77%29.81 "Hg10 mi
Weather by CustomWeather, © 2015

See weather overviewHow to use our weather pages